QPF
0.01 0.01 0.01 0.01 0.02 0.02 0.02 0.02 0.02 0.01 0.02 0.02 0.02 0.03 0.02 0.02 0.02 0.02 0.02 0.03 0.04 0.06 0.05 0.05 0.06 0.05 0.04 0.04 0.05 0.05 0.05 0.07 0.07 0.05 0.05 0.05 0.04 0.03 0.02 0.02 0.02 0.03 0.03
0.01 0.01 0.01 0.01 0.02 0.02 0.02 0.02 0.02 0.02 0.02 0.02 0.02 0.03 0.02 0.03 0.03 0.02 0.03 0.04 0.05 0.07 0.07 0.08 0.07 0.06 0.05 0.05 0.06 0.06 0.07 0.08 0.07 0.06 0.06 0.05 0.06 0.03 0.02 0.02 0.01 0.02 0.02
0.01 0.02 0.02 0.02 0.03 0.02 0.03 0.03 0.03 0.05 0.05 0.03 0.04 0.05 0.04 0.03 0.02 0.03 0.06 0.06 0.05 0.06 0.06 0.05 0.05 0.06 0.06 0.07 0.07 0.07 0.07 0.07 0.07 0.06 0.05 0.06 0.04 0.02 0.02 0.02 0.02 0.03 0.01
0.01 0.02 0.02 0.04 0.03 0.02 0.03 0.02 0.03 0.04 0.05 0.04 0.04 0.05 0.03 0.04 0.03 0.03 0.04 0.04 0.04 0.05 0.05 0.04 0.05 0.06 0.06 0.07 0.07 0.07 0.08 0.07 0.07 0.06 0.05 0.05 0.05 0.03 0.03 0.03 0.03 0.03 0.03
0.01 0.01 0.01 0.01 0.01 0.01 0.02 0.01 0.01 0.01 0.02 0.03 0.03 0.03 0.03 0.02 0.02 0.02 0.02 0.03 0.03 0.05 0.05 0.04 0.04 0.04 0.05 0.06 0.06 0.07 0.07 0.07 0.07 0.06 0.05 0.05 0.05 0.05 0.05 0.05 0.04 0.04 0.04
0.01 0.01 0.00 0.00 0.00 0.01 0.01 0.01 0.01 0.01 0.01 0.02 0.01 0.01 0.02 0.01 0.02 0.03 0.03 0.03 0.04 0.04 0.05 0.05 0.04 0.03 0.03 0.04 0.06 0.07 0.07 0.06 0.06 0.06 0.05 0.04 0.04 0.05 0.06 0.08 0.09 0.09 0.08
0.01 0.00 0.00 0.00 0.01 0.01 0.01 0.01 0.01 0.01 0.01 0.01 0.01 0.00 0.01 0.02 0.03 0.04 0.04 0.04 0.03 0.04 0.06 0.07 0.05 0.04 0.03 0.02 0.03 0.04 0.05 0.05 0.05 0.04 0.04 0.03 0.03 0.03 0.04 0.06 0.10 0.14 0.14
0.01 0.00 0.01 0.01 0.02 0.03 0.03 0.02 0.01 0.01 0.01 0.01 0.01 0.01 0.01 0.02 0.02 0.04 0.06 0.06 0.04 0.05 0.07 0.06 0.05 0.03 0.02 0.04 0.04 0.03 0.03 0.03 0.03 0.03 0.02 0.03 0.02 0.02 0.04 0.06 0.09 0.13 0.14
0.01 0.01 0.01 0.03 0.04 0.05 0.05 0.04 0.03 0.03 0.03 0.02 0.01 0.01 0.02 0.02 0.03 0.04 0.06 0.06 0.04 0.03 0.03 0.03 0.03 0.02 0.02 0.04 0.04 0.03 0.02 0.02 0.02 0.02 0.02 0.02 0.02 0.02 0.03 0.03 0.04 0.07 0.10
0.02 0.01 0.02 0.04 0.05 0.05 0.05 0.04 0.04 0.04 0.03 0.03 0.02 0.02 0.03 0.03 0.03 0.05 0.08 0.07 0.04 0.03 0.03 0.03 0.03 0.03 0.03 0.03 0.04 0.03 0.03 0.02 0.02 0.01 0.01 0.01 0.01 0.02 0.04 0.03 0.02 0.03 0.05
0.02 0.01 0.02 0.02 0.02 0.02 0.02 0.03 0.03 0.03 0.03 0.03 0.02 0.02 0.03 0.03 0.03 0.04 0.05 0.06 0.04 0.04 0.03 0.02 0.02 0.02 0.02 0.03 0.04 0.04 0.04 0.04 0.03 0.02 0.01 0.01 0.01 0.01 0.02 0.02 0.01 0.01 0.02
0.01 0.01 0.01 0.01 0.01 0.01 0.01 0.02 0.03 0.03 0.02 0.02 0.02 0.02 0.02 0.02 0.03 0.04 0.05 0.04 0.04 0.03 0.02 0.02 0.02 0.03 0.03 0.04 0.05 0.04 0.04 0.04 0.03 0.03 0.02 0.02 0.02 0.02 0.01 0.01 0.01 0.01 0.02
0.01 0.01 0.01 0.02 0.02 0.02 0.02 0.02 0.03 0.02 0.02 0.02 0.02 0.02 0.02 0.02 0.02 0.03 0.04 0.04 0.04 0.03 0.02 0.03 0.03 0.04 0.04 0.04 0.04 0.04 0.04 0.03 0.02 0.02 0.02 0.03 0.02 0.02 0.01 0.01 0.01 0.02 0.03
0.01 0.01 0.02 0.02 0.02 0.02 0.02 0.02 0.02 0.02 0.02 0.02 0.01 0.01 0.02 0.02 0.02 0.03 0.04 0.04 0.03 0.03 0.03 0.02 0.03 0.04 0.04 0.03 0.02 0.02 0.02 0.02 0.02 0.02 0.02 0.03 0.03 0.02 0.02 0.02 0.02 0.02 0.04
0.01 0.02 0.02 0.03 0.02 0.02 0.02 0.02 0.02 0.02 0.02 0.02 0.02 0.03 0.03 0.03 0.04 0.04 0.03 0.03 0.03 0.04 0.04 0.03 0.02 0.03 0.02 0.02 0.02 0.02 0.02 0.02 0.03 0.03 0.03 0.03 0.03 0.03 0.03 0.02 0.02 0.02 0.02
0.01 0.02 0.02 0.02 0.02 0.03 0.03 0.04 0.04 0.04 0.04 0.05 0.05 0.05 0.05 0.06 0.06 0.05 0.05 0.05 0.05 0.06 0.05 0.03 0.03 0.02 0.02 0.02 0.02 0.01 0.01 0.02 0.02 0.03 0.03 0.03 0.03 0.03 0.03 0.03 0.03 0.03 0.03
0.01 0.02 0.02 0.01 0.02 0.03 0.03 0.05 0.06 0.06 0.07 0.07 0.06 0.05 0.05 0.05 0.06 0.07 0.07 0.07 0.06 0.06 0.05 0.04 0.03 0.03 0.03 0.03 0.03 0.03 0.03 0.04 0.04 0.05 0.05 0.05 0.04 0.04 0.04 0.04 0.04 0.04 0.04
0.02 0.04 0.04 0.04 0.04 0.04 0.04 0.05 0.05 0.05 0.06 0.06 0.05 0.05 0.05 0.06 0.08 0.07 0.07 0.06 0.06 0.07 0.06 0.05 0.05 0.05 0.05 0.04 0.04 0.04 0.04 0.04 0.04 0.05 0.06 0.06 0.06 0.06 0.06 0.06 0.05 0.05 0.05
0.05 0.07 0.08 0.07 0.05 0.04 0.03 0.03 0.03 0.02 0.03 0.04 0.04 0.03 0.02 0.02 0.02 0.03 0.04 0.04 0.04 0.05 0.06 0.06 0.07 0.07 0.07 0.07 0.06 0.08 0.07 0.05 0.04 0.05 0.06 0.06 0.06 0.07 0.07 0.07 0.07 0.07 0.06
0.05 0.04 0.04 0.03 0.03 0.03 0.03 0.03 0.03 0.02 0.02 0.03 0.03 0.03 0.03 0.02 0.02 0.02 0.03 0.04 0.04 0.03 0.03 0.05 0.06 0.06 0.07 0.06 0.06 0.04 0.03 0.02 0.03 0.03 0.04 0.07 0.06 0.06 0.06 0.06 0.06 0.07 0.07
0.02 0.02 0.02 0.03 0.03 0.03 0.04 0.04 0.04 0.03 0.03 0.03 0.03 0.04 0.04 0.04 0.03 0.03 0.03 0.04 0.05 0.04 0.04 0.03 0.04 0.04 0.03 0.02 0.02 0.02 0.02 0.02 0.03 0.03 0.04 0.05 0.06 0.05 0.04 0.04 0.03 0.03 0.03
0.02 0.02 0.02 0.03 0.03 0.03 0.03 0.03 0.03 0.03 0.03 0.03 0.03 0.03 0.04 0.04 0.03 0.03 0.03 0.03 0.03 0.02 0.02 0.02 0.02 0.02 0.02 0.01 0.01 0.02 0.02 0.02 0.03 0.03 0.04 0.04 0.04 0.05 0.05 0.05 0.04 0.02 0.01
0.02 0.02 0.02 0.02 0.02 0.02 0.02 0.02 0.02 0.02 0.03 0.04 0.03 0.02 0.02 0.02 0.02 0.02 0.02 0.02 0.02 0.02 0.02 0.02 0.02 0.02 0.01 0.01 0.01 0.02 0.02 0.02 0.02 0.02 0.03 0.03 0.03 0.03 0.03 0.03 0.03 0.02 0.01
0.02 0.02 0.02 0.02 0.02 0.01 0.02 0.02 0.02 0.02 0.02 0.02 0.02 0.02 0.01 0.01 0.02 0.02 0.01 0.01 0.02 0.02 0.02 0.02 0.02 0.01 0.01 0.01 0.01 0.01 0.02 0.02 0.02 0.02 0.02 0.02 0.02 0.02 0.01 0.01 0.01 0.01 0.01
0.02 0.02 0.02 0.02 0.02 0.02 0.02 0.02 0.02 0.01 0.02 0.02 0.02 0.02 0.02 0.01 0.01 0.02 0.01 0.01 0.01 0.01 0.01 0.02 0.02 0.02 0.02 0.01 0.01 0.01 0.01 0.01 0.01 0.01 0.01 0.01 0.01 0.01 0.01 0.01 0.01 0.01 0.01
0.01 0.02 0.02 0.02 0.01 0.01 0.01 0.01 0.01 0.02 0.02 0.02 0.01 0.01 0.01 0.01 0.01 0.01 0.02 0.02 0.03 0.03 0.03 0.02 0.02 0.02 0.01 0.01 0.01 0.01 0.01 0.01 0.01 0.01 0.01 0.01 0.01 0.01 0.01 0.01 0.01 0.01 0.01
MSLP
1008.54 1009.21 1009.93 1010.63 1011.25 1011.75 1012.12 1012.38 1012.53 1012.62 1012.69 1012.74 1012.81 1012.89 1012.97 1013.05 1013.11 1013.14 1013.14 1013.09 1013.02 1012.91 1012.78 1012.64 1012.49 1012.35 1012.24 1012.15 1012.12 1012.15 1012.24 1012.41 1012.65 1012.92 1013.21 1013.48 1013.70 1013.85 1013.89 1013.84 1013.69 1013.46 1013.17
1008.81 1009.45 1010.15 1010.84 1011.47 1012.00 1012.42 1012.73 1012.94 1013.10 1013.22 1013.33 1013.44 1013.56 1013.68 1013.78 1013.85 1013.88 1013.87 1013.81 1013.71 1013.58 1013.44 1013.28 1013.13 1012.99 1012.87 1012.78 1012.74 1012.74 1012.80 1012.91 1013.08 1013.27 1013.49 1013.69 1013.86 1013.96 1013.99 1013.93 1013.79 1013.58 1013.32
1009.36 1009.95 1010.60 1011.26 1011.87 1012.40 1012.83 1013.17 1013.43 1013.64 1013.81 1013.97 1014.14 1014.29 1014.44 1014.56 1014.64 1014.67 1014.65 1014.58 1014.47 1014.34 1014.19 1014.04 1013.90 1013.78 1013.67 1013.58 1013.52 1013.49 1013.49 1013.53 1013.60 1013.70 1013.82 1013.93 1014.01 1014.05 1014.04 1013.95 1013.80 1013.60 1013.35
1010.07 1010.62 1011.22 1011.82 1012.39 1012.89 1013.32 1013.66 1013.95 1014.19 1014.41 1014.62 1014.82 1015.02 1015.19 1015.32 1015.41 1015.44 1015.42 1015.35 1015.24 1015.11 1014.98 1014.86 1014.74 1014.64 1014.55 1014.47 1014.40 1014.34 1014.29 1014.25 1014.23 1014.22 1014.23 1014.23 1014.22 1014.19 1014.11 1013.98 1013.80 1013.57 1013.30
1010.83 1011.35 1011.90 1012.45 1012.96 1013.42 1013.81 1014.15 1014.44 1014.71 1014.96 1015.21 1015.45 1015.68 1015.87 1016.03 1016.12 1016.16 1016.14 1016.07 1015.97 1015.86 1015.75 1015.66 1015.58 1015.51 1015.45 1015.39 1015.32 1015.24 1015.14 1015.03 1014.92 1014.82 1014.72 1014.62 1014.51 1014.39 1014.24 1014.05 1013.81 1013.53 1013.22
1011.53 1012.04 1012.56 1013.06 1013.51 1013.92 1014.28 1014.60 1014.89 1015.17 1015.44 1015.72 1015.99 1016.24 1016.46 1016.63 1016.74 1016.78 1016.77 1016.71 1016.63 1016.54 1016.46 1016.40 1016.36 1016.33 1016.30 1016.26 1016.19 1016.09 1015.96 1015.80 1015.61 1015.42 1015.23 1015.04 1014.85 1014.65 1014.42 1014.17 1013.86 1013.52 1013.14
1012.10 1012.61 1013.11 1013.57 1013.98 1014.35 1014.68 1014.98 1015.27 1015.55 1015.85 1016.14 1016.44 1016.71 1016.95 1017.14 1017.26 1017.32 1017.32 1017.27 1017.21 1017.14 1017.09 1017.06 1017.05 1017.05 1017.04 1017.02 1016.95 1016.83 1016.67 1016.47 1016.23 1015.97 1015.71 1015.44 1015.18 1014.90 1014.61 1014.29 1013.93 1013.52 1013.07
1012.47 1013.01 1013.50 1013.95 1014.34 1014.69 1015.00 1015.29 1015.58 1015.87 1016.17 1016.49 1016.80 1017.09 1017.35 1017.56 1017.70 1017.77 1017.79 1017.77 1017.72 1017.68 1017.64 1017.63 1017.63 1017.64 1017.64 1017.62 1017.54 1017.41 1017.22 1016.97 1016.69 1016.38 1016.06 1015.74 1015.42 1015.10 1014.76 1014.39 1013.98 1013.53 1013.02
1012.66 1013.22 1013.73 1014.18 1014.58 1014.93 1015.24 1015.54 1015.83 1016.13 1016.45 1016.78 1017.11 1017.42 1017.70 1017.92 1018.08 1018.18 1018.22 1018.22 1018.19 1018.16 1018.13 1018.12 1018.12 1018.12 1018.10 1018.05 1017.95 1017.79 1017.57 1017.29 1016.97 1016.62 1016.26 1015.90 1015.54 1015.19 1014.82 1014.42 1013.99 1013.51 1012.99
1012.67 1013.27 1013.81 1014.29 1014.70 1015.07 1015.41 1015.73 1016.05 1016.37 1016.71 1017.05 1017.39 1017.72 1018.01 1018.26 1018.44 1018.56 1018.62 1018.64 1018.62 1018.59 1018.56 1018.53 1018.51 1018.48 1018.43 1018.34 1018.19 1017.99 1017.73 1017.42 1017.07 1016.69 1016.30 1015.91 1015.53 1015.16 1014.78 1014.38 1013.95 1013.48 1012.97
1012.56 1013.19 1013.76 1014.27 1014.73 1015.14 1015.52 1015.88 1016.24 1016.59 1016.95 1017.32 1017.68 1018.02 1018.33 1018.59 1018.79 1018.92 1019.00 1019.03 1019.02 1018.98 1018.93 1018.87 1018.81 1018.73 1018.62 1018.48 1018.29 1018.04 1017.75 1017.40 1017.02 1016.62 1016.22 1015.82 1015.43 1015.05 1014.67 1014.28 1013.87 1013.44 1012.96
1012.35 1013.01 1013.61 1014.17 1014.68 1015.15 1015.59 1016.00 1016.40 1016.80 1017.19 1017.58 1017.96 1018.32 1018.64 1018.91 1019.12 1019.27 1019.36 1019.38 1019.36 1019.31 1019.22 1019.12 1019.00 1018.86 1018.70 1018.50 1018.26 1017.98 1017.65 1017.29 1016.89 1016.49 1016.07 1015.67 1015.28 1014.91 1014.54 1014.17 1013.79 1013.40 1012.97
1012.09 1012.77 1013.40 1014.00 1014.56 1015.10 1015.60 1016.08 1016.54 1016.99 1017.42 1017.85 1018.25 1018.62 1018.95 1019.22 1019.44 1019.58 1019.66 1019.67 1019.63 1019.54 1019.41 1019.26 1019.08 1018.89 1018.67 1018.42 1018.15 1017.84 1017.50 1017.13 1016.75 1016.35 1015.95 1015.56 1015.18 1014.81 1014.46 1014.11 1013.76 1013.40 1013.02
1011.81 1012.49 1013.14 1013.78 1014.39 1014.98 1015.56 1016.10 1016.63 1017.14 1017.62 1018.08 1018.50 1018.88 1019.21 1019.49 1019.69 1019.82 1019.88 1019.86 1019.78 1019.64 1019.47 1019.26 1019.04 1018.79 1018.53 1018.26 1017.97 1017.66 1017.34 1017.00 1016.64 1016.28 1015.91 1015.54 1015.18 1014.83 1014.49 1014.15 1013.81 1013.47 1013.12
1011.51 1012.19 1012.85 1013.52 1014.17 1014.82 1015.45 1016.07 1016.66 1017.22 1017.75 1018.24 1018.69 1019.08 1019.41 1019.67 1019.85 1019.96 1019.98 1019.92 1019.79 1019.61 1019.38 1019.13 1018.86 1018.59 1018.31 1018.04 1017.77 1017.49 1017.21 1016.92 1016.62 1016.31 1015.99 1015.66 1015.33 1014.99 1014.66 1014.32 1013.98 1013.63 1013.28
1011.22 1011.88 1012.55 1013.23 1013.91 1014.60 1015.28 1015.95 1016.60 1017.22 1017.79 1018.32 1018.78 1019.18 1019.50 1019.74 1019.89 1019.95 1019.93 1019.83 1019.65 1019.42 1019.16 1018.87 1018.59 1018.30 1018.04 1017.79 1017.56 1017.35 1017.14 1016.92 1016.70 1016.46 1016.20 1015.93 1015.63 1015.31 1014.97 1014.62 1014.26 1013.90 1013.52
1010.93 1011.58 1012.24 1012.92 1013.62 1014.33 1015.05 1015.76 1016.45 1017.11 1017.72 1018.26 1018.74 1019.13 1019.44 1019.66 1019.77 1019.80 1019.73 1019.59 1019.37 1019.11 1018.83 1018.53 1018.25 1017.99 1017.76 1017.57 1017.41 1017.27 1017.15 1017.02 1016.89 1016.73 1016.54 1016.31 1016.04 1015.74 1015.40 1015.03 1014.65 1014.24 1013.81
1010.65 1011.28 1011.93 1012.60 1013.30 1014.03 1014.77 1015.50 1016.22 1016.90 1017.52 1018.08 1018.55 1018.93 1019.22 1019.41 1019.50 1019.49 1019.39 1019.22 1018.99 1018.72 1018.44 1018.17 1017.91 1017.70 1017.53 1017.41 1017.34 1017.29 1017.25 1017.22 1017.16 1017.07 1016.94 1016.75 1016.51 1016.22 1015.88 1015.49 1015.07 1014.62 1014.14
1010.38 1011.00 1011.63 1012.29 1012.99 1013.71 1014.45 1015.18 1015.90 1016.58 1017.20 1017.75 1018.21 1018.57 1018.84 1019.00 1019.07 1019.04 1018.93 1018.76 1018.54 1018.29 1018.05 1017.83 1017.64 1017.50 1017.41 1017.38 1017.39 1017.42 1017.47 1017.51 1017.51 1017.47 1017.38 1017.22 1016.99 1016.69 1016.34 1015.94 1015.49 1015.00 1014.47
1010.10 1010.72 1011.34 1012.00 1012.68 1013.39 1014.11 1014.83 1015.52 1016.18 1016.77 1017.29 1017.73 1018.06 1018.30 1018.45 1018.50 1018.47 1018.38 1018.23 1018.06 1017.88 1017.71 1017.57 1017.47 1017.43 1017.44 1017.50 1017.59 1017.69 1017.80 1017.88 1017.91 1017.89 1017.80 1017.64 1017.40 1017.10 1016.73 1016.30 1015.83 1015.31 1014.75
1009.82 1010.45 1011.07 1011.72 1012.39 1013.07 1013.77 1014.45 1015.10 1015.71 1016.26 1016.74 1017.13 1017.44 1017.65 1017.78 1017.84 1017.83 1017.78 1017.69 1017.60 1017.51 1017.45 1017.43 1017.45 1017.51 1017.63 1017.77 1017.93 1018.09 1018.22 1018.31 1018.34 1018.31 1018.19 1017.99 1017.72 1017.39 1016.99 1016.54 1016.05 1015.52 1014.94
1009.55 1010.19 1010.83 1011.47 1012.13 1012.78 1013.44 1014.07 1014.67 1015.22 1015.70 1016.12 1016.47 1016.73 1016.92 1017.05 1017.13 1017.16 1017.17 1017.17 1017.18 1017.22 1017.29 1017.40 1017.55 1017.74 1017.96 1018.18 1018.40 1018.58 1018.72 1018.79 1018.78 1018.69 1018.52 1018.26 1017.93 1017.55 1017.12 1016.65 1016.14 1015.60 1015.03
1009.28 1009.94 1010.60 1011.25 1011.89 1012.52 1013.12 1013.70 1014.23 1014.71 1015.13 1015.49 1015.78 1016.01 1016.18 1016.31 1016.42 1016.51 1016.60 1016.71 1016.84 1017.01 1017.23 1017.48 1017.77 1018.08 1018.39 1018.69 1018.94 1019.14 1019.26 1019.29 1019.22 1019.05 1018.79 1018.45 1018.05 1017.60 1017.12 1016.62 1016.10 1015.56 1015.00
1009.01 1009.71 1010.38 1011.03 1011.66 1012.26 1012.83 1013.35 1013.81 1014.23 1014.58 1014.88 1015.12 1015.32 1015.48 1015.63 1015.77 1015.92 1016.10 1016.32 1016.58 1016.88 1017.24 1017.63 1018.05 1018.47 1018.87 1019.22 1019.51 1019.70 1019.79 1019.77 1019.62 1019.37 1019.02 1018.59 1018.10 1017.59 1017.05 1016.51 1015.97 1015.43 1014.88
1008.75 1009.47 1010.15 1010.81 1011.43 1012.00 1012.53 1013.00 1013.42 1013.77 1014.07 1014.32 1014.53 1014.71 1014.87 1015.04 1015.23 1015.45 1015.71 1016.02 1016.40 1016.83 1017.30 1017.82 1018.34 1018.85 1019.32 1019.73 1020.03 1020.22 1020.28 1020.21 1020.00 1019.66 1019.22 1018.71 1018.14 1017.55 1016.96 1016.38 1015.82 1015.27 1014.72
1008.49 1009.22 1009.91 1010.56 1011.17 1011.72 1012.22 1012.66 1013.03 1013.35 1013.61 1013.84 1014.03 1014.21 1014.39 1014.59 1014.82 1015.10 1015.44 1015.84 1016.30 1016.83 1017.40 1018.00 1018.60 1019.18 1019.71 1020.15 1020.47 1020.66 1020.70 1020.59 1020.32 1019.93 1019.42 1018.84 1018.20 1017.55 1016.90 1016.28 1015.69 1015.12 1014.58
Thickness
5792 5789 5786 5783 5780 5778 5775 5772 5770 5768 5765 5763 5762 5760 5758 5756 5755 5752 5751 5749 5746 5744 5743 5741 5739 5738 5738 5738 5737 5735 5733 5730 5725 5726 5727 5725 5722 5721 5720 5719 5719 5719 5718
5791 5787 5783 5780 5778 5775 5773 5771 5769 5766 5764 5762 5760 5758 5756 5755 5753 5750 5748 5746 5744 5742 5740 5738 5737 5736 5733 5733 5732 5731 5729 5727 5723 5719 5720 5720 5717 5716 5715 5715 5717 5718 5716
5789 5785 5781 5778 5775 5772 5771 5769 5767 5764 5762 5760 5758 5756 5754 5752 5750 5749 5746 5744 5742 5740 5738 5736 5734 5732 5730 5729 5728 5728 5727 5725 5722 5718 5716 5715 5714 5713 5711 5711 5712 5711 5713
5787 5782 5778 5775 5773 5771 5769 5767 5764 5762 5760 5757 5755 5753 5751 5750 5748 5746 5744 5741 5739 5737 5736 5733 5731 5729 5727 5725 5724 5722 5721 5719 5717 5714 5713 5711 5709 5708 5706 5706 5706 5707 5707
5782 5779 5776 5774 5771 5768 5765 5763 5761 5759 5758 5755 5752 5750 5748 5747 5746 5743 5740 5738 5735 5733 5731 5729 5727 5725 5722 5720 5720 5718 5716 5713 5712 5709 5708 5706 5703 5701 5700 5701 5700 5701 5701
5778 5775 5773 5770 5767 5764 5762 5760 5758 5755 5753 5751 5748 5746 5744 5744 5740 5736 5735 5734 5731 5729 5726 5724 5723 5720 5716 5713 5711 5710 5708 5707 5705 5703 5702 5699 5695 5695 5694 5694 5694 5693 5693
5774 5772 5769 5767 5764 5761 5759 5756 5753 5751 5748 5746 5744 5742 5740 5737 5733 5730 5728 5729 5727 5725 5722 5720 5719 5718 5713 5710 5706 5703 5701 5699 5697 5697 5695 5692 5691 5689 5687 5687 5686 5685 5685
5770 5768 5766 5763 5760 5758 5754 5751 5748 5746 5743 5742 5740 5738 5735 5733 5728 5725 5722 5722 5722 5720 5717 5715 5711 5709 5708 5704 5702 5699 5697 5695 5693 5691 5689 5688 5686 5683 5681 5680 5680 5679 5680
5766 5763 5762 5759 5756 5753 5749 5747 5744 5740 5738 5737 5735 5732 5729 5727 5722 5719 5716 5717 5716 5714 5712 5710 5706 5703 5699 5695 5694 5692 5691 5689 5686 5684 5682 5680 5677 5675 5674 5675 5674 5673 5674
5762 5760 5757 5754 5751 5748 5745 5742 5739 5736 5733 5731 5729 5727 5724 5721 5716 5712 5709 5712 5710 5708 5706 5704 5698 5695 5691 5687 5687 5685 5683 5683 5682 5680 5676 5674 5673 5671 5668 5667 5668 5667 5668
5758 5755 5752 5749 5746 5743 5740 5736 5732 5729 5726 5724 5721 5720 5717 5715 5711 5706 5703 5705 5704 5702 5700 5697 5694 5687 5683 5680 5678 5678 5676 5676 5676 5674 5673 5671 5670 5667 5665 5663 5662 5661 5661
5751 5749 5746 5743 5741 5739 5733 5729 5726 5722 5719 5717 5714 5712 5711 5709 5704 5700 5697 5695 5694 5693 5691 5689 5686 5679 5675 5673 5672 5670 5668 5667 5670 5669 5667 5665 5664 5662 5661 5659 5656 5654 5652
5744 5741 5738 5736 5733 5730 5726 5723 5719 5716 5714 5713 5710 5707 5705 5703 5699 5693 5690 5688 5685 5683 5683 5678 5675 5671 5668 5668 5665 5663 5662 5662 5662 5661 5659 5658 5658 5656 5654 5651 5649 5647 5645
5735 5733 5730 5728 5725 5723 5720 5717 5714 5711 5707 5704 5701 5699 5697 5695 5692 5689 5686 5682 5677 5675 5673 5669 5665 5664 5663 5661 5659 5658 5658 5657 5655 5654 5652 5651 5649 5647 5645 5644 5643 5641 5640
5728 5726 5723 5722 5720 5714 5711 5707 5705 5701 5698 5693 5692 5690 5688 5686 5682 5677 5675 5674 5671 5668 5663 5662 5661 5659 5658 5656 5654 5653 5652 5650 5648 5646 5644 5642 5640 5639 5637 5636 5633 5632 5631
5720 5718 5717 5715 5711 5708 5703 5698 5691 5687 5683 5679 5677 5676 5675 5671 5667 5665 5662 5660 5656 5653 5652 5655 5654 5652 5650 5648 5647 5646 5644 5642 5640 5638 5636 5634 5632 5630 5628 5627 5625 5624 5623
5711 5710 5709 5707 5703 5700 5696 5691 5685 5678 5672 5669 5666 5664 5662 5659 5656 5653 5651 5648 5646 5643 5646 5647 5645 5644 5642 5640 5639 5637 5635 5633 5630 5628 5626 5624 5623 5622 5620 5618 5616 5615 5614
5704 5701 5699 5696 5694 5691 5688 5684 5681 5677 5671 5666 5659 5654 5651 5648 5645 5643 5641 5640 5641 5640 5641 5639 5637 5635 5633 5630 5628 5627 5625 5623 5620 5619 5617 5615 5615 5613 5612 5610 5608 5605 5604
5696 5694 5691 5689 5686 5683 5680 5677 5674 5670 5666 5661 5657 5650 5643 5640 5636 5634 5632 5635 5636 5635 5633 5630 5628 5626 5623 5620 5618 5616 5614 5612 5611 5609 5608 5605 5605 5604 5603 5601 5600 5594 5593
5687 5683 5681 5680 5679 5676 5673 5670 5667 5663 5660 5656 5652 5648 5642 5638 5636 5633 5630 5629 5628 5626 5623 5620 5618 5615 5613 5610 5608 5606 5605 5603 5601 5600 5599 5596 5595 5594 5592 5591 5590 5587 5585
5680 5677 5671 5671 5670 5668 5665 5662 5659 5656 5652 5649 5645 5641 5634 5634 5632 5629 5627 5624 5621 5619 5615 5612 5609 5606 5603 5601 5600 5598 5596 5594 5592 5590 5588 5586 5585 5583 5582 5580 5579 5577 5576
5672 5669 5667 5665 5662 5658 5656 5654 5651 5648 5645 5641 5638 5633 5625 5626 5626 5623 5621 5617 5615 5611 5608 5604 5601 5598 5595 5593 5591 5589 5587 5584 5581 5578 5576 5574 5572 5571 5570 5569 5568 5567 5565
5664 5662 5659 5656 5654 5648 5647 5646 5643 5640 5637 5634 5631 5627 5623 5621 5619 5616 5612 5610 5607 5604 5600 5596 5593 5591 5587 5585 5582 5580 5577 5575 5571 5568 5565 5563 5562 5561 5560 5558 5556 5554 5554
5655 5653 5651 5648 5644 5642 5640 5638 5636 5634 5631 5627 5623 5620 5617 5613 5611 5608 5604 5601 5599 5595 5592 5588 5585 5582 5578 5575 5573 5571 5566 5562 5559 5558 5555 5553 5552 5552 5550 5548 5546 5545 5543
5647 5645 5643 5640 5637 5634 5632 5630 5628 5626 5623 5619 5615 5612 5609 5606 5603 5600 5597 5593 5590 5587 5583 5579 5576 5573 5570 5566 5563 5559 5554 5550 5547 5545 5544 5544 5543 5541 5540 5538 5536 5534 5532
5640 5637 5634 5631 5628 5626 5625 5622 5620 5617 5615 5611 5608 5604 5601 5597 5594 5591 5588 5585 5581 5577 5574 5571 5568 5565 5561 5558 5553 5548 5543 5539 5536 5533 5532 5533 5533 5531 5529 5528 5526 5524 5522